This demonstration page uses our WeatherBlox Daily Observations layout. Learn more.

Left ArrowRight Arrow

Hourly Observations for November 11, 2016

Temp ( °F °C ) Dew Point ( °F °C ) Humidity (%) Winds ( mph kmh ) Pressure ( in mb ) Visibility ( mi km ) Precip ( " mm )
12:41 am 00:41 Mostly Cloudy with Fog 53 11.7 53 11.7 100 100 SE 6 9 30.27 1025 1 1 0.00 0.00
12:53 am 00:53 Mostly Cloudy with Mist and Fog 52 11.1 52 11.1 100 100 SE 6 9 30.25 1024 1 1 0.00 0.00
1:01 am 01:01 Cloudy with Mist and Fog 52 11.1 52 11.1 100 100 SE 6 9 30.27 1025 2 3 0.00 0.00
1:10 am 01:10 Cloudy with Mist and Fog 52 11 52 11 100 100 SE 9 15 30.27 1025 6 10 0.00 0.00
1:53 am 01:53 Cloudy 52 11.1 52 11.1 100 100 SSE 5 7 30.24 1024 10 16 0.00 0.00
2:53 am 02:53 Cloudy 52 11.1 52 11.1 100 100 Calm 30.23 1024 10 16 0.00 0.00
3:18 am 03:18 Cloudy with Mist and Fog 52 11 52 11 100 100 ENE 3 6 30.24 1024 2 3 0.00 0.00
3:32 am 03:32 Cloudy with Mist and Fog 52 11 52 11 100 100 ENE 3 6 30.24 1024 1 2 0.00 0.00
3:43 am 03:43 Cloudy with Mist and Fog 51 10.6 51 10.6 100 100 Calm 30.24 1024 3 5 0.00 0.00
3:53 am 03:53 Cloudy with Mist and Fog 51 10.6 51 10.6 100 100 Calm 30.22 1024 3 5 0.00 0.00
3:58 am 03:58 Cloudy with Mist and Fog 51 10.6 51 10.6 100 100 Calm 30.24 1024 2 3 0.00 0.00
4:12 am 04:12 Cloudy with Fog 52 11 52 11 100 100 N 5 7 30.24 1024 1 1 0.00 0.00
4:48 am 04:48 Mostly Cloudy with Fog 52 11 52 11 100 100 NNE 3 6 30.27 1025 0 0 0.00 0.00
4:53 am 04:53 Mostly Cloudy with Fog 51 10.6 51 10.6 100 100 Calm 30.23 1024 1 1 0.00 0.00
5:12 am 05:12 Mostly Cloudy with Fog 52 11 52 11 100 100 NNW 6 9 30.27 1025 0 0 0.00 0.00
5:26 am 05:26 Mostly Cloudy with Fog 52 11 52 11 100 100 NNW 7 11 30.27 1025 1 1 0.00 0.00
5:40 am 05:40 Cloudy with Mist and Fog 52 11 52 11 100 100 N 6 9 30.27 1025 2 3 0.00 0.00
5:50 am 05:50 Cloudy with Mist and Fog 52 11 52 11 100 100 N 7 11 30.27 1025 4 6 0.00 0.00
5:53 am 05:53 Cloudy with Mist and Fog 51 10.6 51 10.6 100 100 N 6 9 30.24 1024 6 10 0.00 0.00
6:53 am 06:53 Mostly Cloudy 51 10.6 51 10.6 100 100 N 3 6 30.25 1024 10 16 0.00 0.00
7:00 am 07:00 Mostly Cloudy 52 11 52 11 100 100 NNE 5 7 30.27 1025 10 16 0.00 0.00
7:13 am 07:13 Mostly Clear 50 10 50 10 100 100 NNE 5 7 30.30 1026 10 16 0.00 0.00
7:53 am 07:53 Sunny 50 10 50 10 100 100 Calm 30.27 1025 10 16 0.00 0.00
8:11 am 08:11 Partly Cloudy 51 10.6 51 10.6 100 100 Calm 30.33 1027 9 14 0.00 0.00
8:19 am 08:19 Mostly Cloudy 51 10.6 51 10.6 100 100 Calm 30.33 1027 9 14 0.00 0.00
8:53 am 08:53 Cloudy 53 11.7 53 11.7 100 100 Calm 30.29 1026 10 16 0.00 0.00
9:53 am 09:53 Cloudy 55 12.8 52 11.1 90 90 NE 3 6 30.29 1026 10 16 0.00 0.00
10:53 am 10:53 Cloudy 56 13.3 51 10.6 84 84 Calm 30.29 1026 10 16 0.00 0.00
11:53 am 11:53 Cloudy 59 15 52 11.1 78 78 NNE 3 6 30.27 1025 10 16 0.00 0.00
12:03 pm 12:03 Cloudy 59 15 52 11 77 77 ESE 3 6 30.27 1025 10 16 0.00 0.00
12:53 pm 12:53 Cloudy 59 15 52 11.1 78 78 Calm 30.24 1024 10 16 0.00 0.00
1:53 pm 13:53 Cloudy 61 16.1 51 10.6 70 70 Calm 30.21 1023 10 16 0.00 0.00
2:22 pm 14:22 Cloudy 63 17 52 11 68 68 N 3 6 30.18 1022 10 16 0.00 0.00
2:38 pm 14:38 Cloudy 63 17 50 10 64 64 N 6 9 30.18 1022 10 16 0.00 0.00
2:53 pm 14:53 Cloudy 63 17.2 50 10 63 63 NW 7 11 30.19 1022 10 16 0.00 0.00
3:06 pm 15:06 Cloudy 63 17 48 9 59 59 ENE 5 7 30.15 1021 10 16 0.00 0.00
3:53 pm 15:53 Mostly Cloudy 64 17.8 50 10 60 60 N 3 6 30.18 1022 10 16 0.00 0.00
4:53 pm 16:53 Sunny 65 18.3 48 8.9 54 54 Calm 30.18 1022 10 16 0.00 0.00
5:53 pm 17:53 Mostly Cloudy 61 16.1 49 9.4 65 65 Calm 30.19 1023 10 16 0.00 0.00
6:53 pm 18:53 Cloudy 59 15 51 10.6 75 75 Calm 30.20 1023 10 16 0.00 0.00
7:53 pm 19:53 Cloudy 57 13.9 51 10.6 81 81 S 3 6 30.23 1024 10 16 0.00 0.00
8:53 pm 20:53 Mostly Cloudy 54 12.2 51 10.6 90 90 SSE 3 6 30.24 1024 10 16 0.00 0.00
9:53 pm 21:53 Cloudy 55 12.8 52 11.1 90 90 WSW 5 7 30.24 1024 10 16 0.00 0.00
10:53 pm 22:53 Cloudy 55 12.8 52 11.1 90 90 WNW 7 11 30.25 1024 10 16 0.00 0.00
11:53 pm 23:53 Cloudy 56 13.3 52 11.1 87 87 W 6 9 30.24 1024 10 16 0.00 0.00

Powered by AerisWeather